CZ-6A DEB

Satellite information

Favourite Embed

Satellite Type and Status

DEBRISIN ORBIT

Key statistics

Satellite CZ-6A DEB at a glance.

Uptime

335

Days in orbit

Revolutions

≈ 14.6

Per day

Orbit

LEO

Low Earth Orbit

Inclination

89.3

Latest

Satellite identification and parameters

Extended collection of information and parameters for CZ-6A DEB.

Object identification

Identified? True

Debris? True

Object name: CZ-6A DEB

International designator: 2024-140QY

Object number (NORAD): 61154

Object ID (CCSDS): 61154

Country: PEOPLES REPUBLIC OF CHINA (PRC)

Current information (Y/N): Y

RCS size: SMALL

Orbital parameters

Period: 98.599 minutes

Inclination: 89.2815 deg

SMA: 7069.824 km

Apoapsis: 790.997 km

Periapsis: 592.38 km

RAAN: 322.7901 deg

Eccentricy: 0.0140468

Argument of periapsis: 25.0365 deg

Mean anomaly: 335.7572 deg

Mean motion: 14.60460743 rev/day

Mean motion (dot): 0.00002804 rev/day2

B* drag term: 0.00050015 1/REarth

Two-line elements (TLE)

Creation date: July 5, 2025, 10:16 p.m.

Reference frame: TEME

Reference center: EARTH

Epoch: July 5, 2025, 8:11 p.m. UTC

TLE line 0: 0 CZ-6A DEB

TLE line 1: 1 61154U 24140QY 25186.84128513 .00002804 00000-0 50015-3 0 9990

TLE line 2: 2 61154 89.2815 322.7901 0140468 25.0365 335.7572 14.60460743 46322

Live tracking on map

Real-time ground track for satellite CZ-6A DEB.

In-orbit conjunctions

A list of the most updated potential collisions computed for object CZ-6A DEB.

Target Orbit TCA Probability of collision Miss distance Type
CZ-6A DEB LEO 2025-01-17 17:47:32 0.0001748315 377.0 (m) DEBRIS
THOR ABLESTAR DEB LEO 2025-01-11 06:46:16 0.0001193733 531.0 (m) DEBRIS

Associated space launch

18 Low Earth Orbit communication satellites with Ku, Q and V band payloads for the G60 constellation operated by Shanghai Spacecom Satellite Technology (SSST) with funding backed by the Shanghai local government. Initial constellation will consist of 1296 satellites by 2027 with long term plans to expand it to 12000 satellites.

CZ-6A DEB was lifted into orbit during the mission ‘Long March 6A | G60 Polar Group 01’, on board a Long March 6A space rocket.

The launch took place on Aug. 6, 2024, 6:42 a.m. from Launch Complex 9A.

For more information about the launch, click the button.

Launch to space Long March 6A | G60 Polar Group 01
Long March 6A | G60 Polar Group 01

Agency: N/A

Status: Launch Successful

Launch date: Aug. 6, 2024, 6:42 a.m. UTC

Rocket: Long March 6A

Launch pad: Launch Complex 9A

Location: Taiyuan Satellite Launch Center, People's Republic of China

...

Latest news about this satellite

News about space launch
Brightness of first Chinese broadband constellation satellites alarms astronomers

The first satellites of a Chinese broadband constellation are significantly brighter than those of Western systems, posing a new challenge for astronomers.

News about space launch
Chinese rocket stage breaks up into cloud of more than 700 pieces of space debris

HELSINKI — A Chinese Long March 6A rocket’s upper stage has fragmented into a cloud of over 700 pieces of space debris, adding to concerns about long-term orbital safety. China […]

News about space launch
China's Thousand Sails Megaconstellation Kicks Off with Dangerous Debris Field

China's Thousand Sails Megaconstellation Kicks Off with Dangerous Debris Field


Newsletter sign-up

Weekly statistics, charts and insights to help you stay on top of the space industry.